Regional Weather Roundup
Issued by NWS

Home | Current Version | Previous Version | Graphics & Text | Print | Product List | Glossary On
Versions: 1 2 3 4 5 6 7 8 9 10 11 12 13 14 15 16 17 18 19 20 21 22 23 24 25 26 27 28 29 30 31 32 33 34 35 36 37 38 39 40 41 42 43 44 45 46 47 48 49 50
000
ASUS43 KLOT 190400
RWRIL

ILLINOIS REGIONAL WEATHER ROUNDUP
NATIONAL WEATHER SERVICE CHICAGO/ROMEOVILLE IL
1100 PM CDT THU SEP 18 2014

NOTE: "FAIR" INDICATES FEW OR NO CLOUDS BELOW 12,000 FEET WITH NO
SIGNIFICANT WEATHER AND/OR OBSTRUCTIONS TO VISIBILITY.

* THESE STATIONS ARE NOT UNDER NWS QUALITY CONTROL. THEY ALSO MAY NOT
  REPORT WEATHER SUCH AS PRECIPITATION OR FOG.

ILZ001-002-007-009-015-016-024-190500-
NORTHWEST ILLINOIS

CITY           SKY/WX    TMP DP  RH WIND       PRES   REMARKS
MOLINE         CLEAR     56  49  77 E6        30.10S
STERLING*      CLEAR     52  48  87 E5        30.13S
$$

ILZ003-004-008-010-011-017-018-190500-
NORTH CENTRAL ILLINOIS

CITY           SKY/WX    TMP DP  RH WIND       PRES   REMARKS
ROCKFORD       CLEAR     54  51  90 E3        30.18R
FREEPORT*      CLEAR     50  49  95 E6        30.17R FOG
ROCHELLE*      CLEAR     52  51  95 E5        30.15R FOG
$$

ILZ005-006-012>014-019>023-190500-
NORTHEAST ILLINOIS

CITY           SKY/WX    TMP DP  RH WIND       PRES   REMARKS
CHICAGO-OHARE  PTCLDY    57  53  86 NE5       30.16R
CHICAGO-MIDWAY PTCLDY    62  58  86 NE7       30.15S
AURORA         CLEAR     54  51  90 NE3       30.15R FOG
LANSING*       CLEAR     58  57  94 CALM      30.16R
WAUKEGAN       CLEAR     50  49  96 NE3       30.16R FOG
DUPAGE AIRPORT CLEAR     54  52  93 NE3       30.15R
WHEELING       PTCLDY    55  52  89 CALM      30.18R
NORTHERLY ISL    N/A     61  58  90 NE7         N/A
$$

LMZ740>746-190500-
SOUTHERN LAKE MICHIGAN

STATION/POSITION SKY/WX   TEMP    WIND        PRES    VSBY  WAVE
                          AIR SEA DIR/SP/G                  HT/PER
                          (F)     (DEG/KT/KT) (MB)    (MI)  (FT/S)
SOUTHERN BUOY              61 64   30/ 10/ 12 1021.7R         2/ 5
WAUKEGAN HARBOR            60      60/  8/ 11   N/A
HARRISON CRIB              61      30/ 10/ 12   N/A
BURNHAM HARBOR             61      50/  8/  9   N/A
CALUMET HARBOR             61      30/  5/  7 1019.9R
MICHIGAN CITY              61      50/  8/ 10   N/A
MICHIGAN CITY 6N           63 65   80/ 10/ 12   N/A           3/ 2
ST. JOSEPH                 62 66  100/ 14/ 17   N/A           2/ 2
$$

ILZ025>027-034>036-040-047-049-050-058-095>099-190500-
WEST-CENTRAL ILLINOIS

CITY           SKY/WX    TMP DP  RH WIND       PRES   REMARKS
QUINCY         CLEAR     56  53  90 E6        30.08R
GALESBURG*     CLEAR     56  49  76 E3        30.10S
MACOMB*        CLEAR     53  50  90 E6        30.11R
$$

ILZ028>032-037-038-041>044-048-051>054-059>061-190500-
CENTRAL ILLINOIS

CITY           SKY/WX    TMP DP  RH WIND       PRES   REMARKS
DECATUR        CLEAR     52  46  80 E5        30.11S
PEORIA         CLEAR     60  50  69 E9        30.12R
SPRINGFIELD    CLEAR     55  48  77 E5        30.09S
TAYLORVILLE    NOT AVBL
$$

ILZ033-039-045-046-055>057-062-063-190500-
EAST-CENTRAL ILLINOIS

CITY           SKY/WX    TMP DP  RH WIND       PRES   REMARKS
CHAMPAIGN      CLEAR     53  48  83 E7        30.12S
MATTOON        CLEAR     56  50  80 CALM      30.10S
$$

ILZ079-100>102-190500-
SOUTHWEST ILLINOIS

CITY           SKY/WX    TMP DP  RH WIND       PRES   REMARKS
BELLEVILLE     CLEAR     57  57 100 CALM      30.07S
CAHOKIA*       CLEAR     56  54  93 CALM      30.07S FOG
SPARTA*        CLEAR     59  54  85 CALM      30.08S HAZE
$$

ILZ064>066-069>071-074>076-080>082-084>086-088>090-092>094-190500-
SOUTH-CENTRAL ILLINOIS

CITY           SKY/WX    TMP DP  RH WIND       PRES   REMARKS
CARBONDALE     PTCLDY    56  53  90 CALM      30.07R
MARION         CLEAR     59  55  88 CALM      30.07S
MT. VERNON     CLEAR     54  50  87 N3        30.09S
$$

ILZ067-068-072-073-078-083-087-091-190500-
SOUTHEAST ILLINOIS

CITY           SKY/WX    TMP DP  RH WIND       PRES   REMARKS
LAWRENCEVILLE  CLEAR     54  52  93 NE5       30.10S
ROBINSON*      FOG       51  51  98 CALM      30.12R VSB 3/4
$$

ABBREVIATIONS USED IN REMARKS
   TC - TEMPERATURE IN CELSIUS
  WCI - WIND CHILL INDEX
   HX - HEAT INDEX
  VSB - VISIBILITY
$$



USA.gov is the U.S. government's official web portal to all federal, state and local government web resources and services.